Location: Lewisville
(33.0462°N, 96.9942°W)
Time: 16:45:33
(UTC-06:00)

Envisat - Pass Details

Date: 17 February 2021
Orbit: 764 x 766 km, 98.2° (Epoch: 01 December)

Event Time Altitude Azimuth Distance (km) Brightness Sun altitude
Rises 05:59:37 0° 13° (NNE) 3,237 6.4 -15.2°
Reaches altitude 10° 06:01:56 10° 15° (NNE) 2,307 5.6 -14.7°
Maximum altitude 06:07:02 80° 102° (ESE) 779 3.1 -13.7°
Drops below altitude 10° 06:12:05 10° 190° (S) 2,291 5.4 -12.6°
Sets 06:14:23 0° 191° (S) 3,213 6.2 -12.1°
